ONEWEB-0083, 45435

Orbit data source: Space-Track

ONEWEB-0083, 45435 is a payload satellite owned by One Web (UK) in LEO that was launched on Sat, 21 Mar 2020 UTC via a SOYUZ-2-1B launch vehicle from the Tyuratam Missile And Space Complex (TTMTR). Payload-class satellites include a variety of spacecraft equipped with specific instruments for various scientific and technological missions. These include communications satellites like Starlink; space stations such as the ISS; scientific satellites like the Hubble; Earth observation satellites from companies like Planet Labs, Umbra, and HawkEye 360; GPS; miniature CubeSats for education and research; and military/defense satellites.

Loading next visibility...
Identifier
45435, 2020-020M
Orbit
LEO
Country
Flag of UKUK
Related business
Manufacturer
One Web
Mission
Operational Commercial Communications
Bus & Motor
ARROW, Unknown motor
Mass
148 kg wet, ~140 kg dry
Launch date (UTC)
2020-03-21 (6 years ago)
Launch vehicle
SOYUZ-2-1B
Launch site
Tyuratam Missile And Space Complex (TTMTR)
Object type
Payload
Rocket body
Debris
Shape & HBR
Trap Box + 2 Pan, 6.7 m
Radar Cross Section
3.464 m², Large (>1 m²)

Expand to show TLE details & history
Last TLE update: 2 days ago

TLE from 2 days ago
0 ONEWEB-0083
1 45435U 20020M   26171.33604977  .00000484  00000-0  13309-2 0  9995
2 45435  87.8893  20.4332 0001765  88.1804 271.9526 13.11417124303089
Epoch: 2026-06-20T08:03Z
TLE epoch observation values (Epoch: 2026-06-20T08:03:54.700Z)
Latitude
-0.00001°
Longitude
-9.09686°
Altitude
1,220.526 km
Speed
7.244 km/s
True Right ascension
01h 21m 43s
True Declination
0° 00' 00"
Sunlit
Object was in daylight at epoch
Visualization orbit readout
Latitude
Unknown
Longitude
Unknown
Altitude
Unknown
Speed
Unknown
Apparent Right ascension
Unknown
Apparent Declination
Unknown
Sunlit
N/A
Visualization observer readout
Local Sidereal Time
21:42:30
Azimuth
Unknown
Elevation
Unknown
Doppler factor
Unknown
Orbital elements
Apogee altitude
1,216.14 km
Perigee altitude
1,213.46 km
Semi-major axis
7,592.937 km
Eccentricity
0.00018
Inclination
87.8893°
RAAN
20.4332°
Arg. of periapsis
88.1804°
True anomaly
271.93239°
Mean anomaly
271.9526°
Eccentric anomaly
271.94249°
Mean motion
3.28041 °/min
Orbital period
109.74 mins
BSTAR
0.0013309
Loading maneuver chart data...
Computing Atmospheric mass density...
Loading historical data...
Loading historical data...
Loading historical data...
Loading historical data...
Loading historical data...
Loading historical data...
Loading historical data...

Documentation

Showing up to 5 results
|